Cedar Rapids, IA

3:50 AM CST on December 15, 2019 (GMT -0600)
The Eastern Iowa Airport

Weather History for KCID - August, 2019

Change the Weather History Date:

Sunday, August 25, 2019

  Actual Average Record
Temperature  
Mean Temperature 64 °F 70 °F  
Max Temperature 72 °F 81 °F 97 °F (1925)
Min Temperature 55 °F 59 °F 40 °F (1934)
Degree Days  
Heating Degree Days 1 1  
Month to date heating degree days 2 6  
Since 1 June heating degree days 13 39  
Since 1 July heating degree days 2 10  
Cooling Degree Days 0 6  
Month to date cooling degree days 145 169  
Year to date cooling degree days 647 636  
Since 1 June cooling degree days 619 587  
Growing Degree Days 13 (Base 50)    
Moisture  
Dew Point 58 °F    
Average Humidity 83    
Maximum Humidity 100    
Minimum Humidity 66    
Precipitation  
Precipitation 0.15 in 0.14 in 2.61 in (1987)
Month to date precipitation 5.07 3.65  
Year to date precipitation 27.66 24.47  
Sea Level Pressure  
Sea Level Pressure 30.00 in    
Wind  
Wind Speed 11 mph (ESE)    
Max Wind Speed 17 mph    
Max Gust Speed 23 mph    
Visibility 10 miles    
Events Rain    
T = Trace of Precipitation, MM = Missing Value Source: NWS Daily Summary

Daily Weather History Graph

Daily Weather History Graph

Search for Another Location

Airport or City:

Astronomy

Aug. 25, 2019 Rise Set
Actual Time 6:25 AM CDT 7:52 PM CDT
Civil Twilight 5:55 AM CDT 8:21 PM CDT
Nautical Twilight 5:20 AM CDT 8:56 PM CDT
Astronomical Twilight 4:43 AM CDT 9:33 PM CDT
Moon 12:57 AM CDT (8/25) 4:16 PM CDT (8/25)
Length of Visible Light 14h 25m
Length of Day
13h 26m
Waning Crescent, 29% of the Moon is Illuminated
Aug 25
Waning Crescent
Aug 30
New
Sep 5
First Quarter
Sep 13
Full
Sep 21
Last Quarter

Hourly Weather History & Observations

Time (CDT) Temp. Dew Point Humidity Pressure Visibility Wind Dir Wind Speed Gust Speed Precip Events Conditions
12:52 AM 59.0 °F 55.0 °F 87% 30.12 in 10.0 mi East 8.1 mph - N/A   Mostly Cloudy
1:52 AM 57.9 °F 55.0 °F 90% 30.11 in 10.0 mi East 6.9 mph - N/A   Mostly Cloudy
2:52 AM 57.0 °F 55.0 °F 93% 30.09 in 10.0 mi East 3.5 mph - N/A   Mostly Cloudy
3:52 AM 55.0 °F 54.0 °F 96% 30.08 in 10.0 mi East 8.1 mph - N/A   Partly Cloudy
4:52 AM 55.9 °F 54.0 °F 93% 30.07 in 10.0 mi East 8.1 mph - N/A   Clear
5:52 AM 55.9 °F 54.0 °F 93% 30.07 in 10.0 mi East 8.1 mph - N/A   Partly Cloudy
6:52 AM 55.9 °F 54.0 °F 93% 30.06 in 10.0 mi East 9.2 mph - N/A   Partly Cloudy
7:52 AM 57.9 °F 55.0 °F 90% 30.05 in 10.0 mi ESE 10.4 mph - N/A   Overcast
8:52 AM 62.1 °F 57.0 °F 84% 30.04 in 10.0 mi ESE 10.4 mph - N/A   Mostly Cloudy
9:52 AM 64.0 °F 57.9 °F 80% 30.04 in 10.0 mi East 11.5 mph - N/A   Overcast
10:52 AM 69.1 °F 60.1 °F 73% 30.04 in 10.0 mi ESE 11.5 mph - N/A   Partly Cloudy
11:52 AM 69.1 °F 59.0 °F 70% 30.02 in 10.0 mi East 13.8 mph - N/A   Mostly Cloudy
12:52 PM 69.1 °F 60.1 °F 73% 30.01 in 10.0 mi ESE 12.7 mph - N/A   Overcast
1:52 PM 69.1 °F 59.0 °F 70% 30.00 in 10.0 mi East 15.0 mph - N/A   Overcast
2:52 PM 68.0 °F 61.0 °F 78% 29.98 in 10.0 mi ESE 11.5 mph - 0.00 in   Overcast
3:52 PM 71.1 °F 60.1 °F 68% 29.96 in 10.0 mi ESE 13.8 mph - N/A   Overcast
4:52 PM 70.0 °F 59.0 °F 68% 29.94 in 10.0 mi ESE 12.7 mph - N/A   Overcast
5:52 PM 69.1 °F 57.9 °F 68% 29.93 in 10.0 mi ESE 10.4 mph - N/A   Overcast
6:52 PM 66.9 °F 59.0 °F 76% 29.93 in 10.0 mi ESE 12.7 mph - N/A   Overcast
7:52 PM 64.0 °F 57.9 °F 80% 29.92 in 10.0 mi East 12.7 mph - 0.00 in   Overcast
8:52 PM 64.0 °F 57.9 °F 80% 29.92 in 10.0 mi East 12.7 mph - N/A   Overcast
9:52 PM 61.0 °F 60.1 °F 97% 29.92 in 6.0 mi East 9.2 mph - N/A Rain Light Rain
10:52 PM 61.0 °F 61.0 °F 100% 29.91 in 6.0 mi East 10.4 mph - 0.13 in Rain Rain
11:52 PM 61.0 °F 60.1 °F 97% 29.89 in 10.0 mi ESE 10.4 mph - 0.00 in   Clear